Location: Newark
(53.7833°N, 9.4833°E)
Time: 08:37:09
(UTC+00:00)

Envisat - Pass Details

Date: 18 December 2019
Orbit: 764 x 766 km, 98.1° (Epoch: 20 January)

Event Time Altitude Azimuth Distance (km) Brightness Sun altitude
Rises 16:01:54 0° 135° (SE) 3,227 6.1 -8.2°
Reaches altitude 10° 16:04:21 10° 127° (SE) 2,305 5.2 -8.5°
Maximum altitude 16:08:56 35° 62° (ENE) 1,220 3.5 -9.1°
Drops below altitude 10° 16:13:32 10° 358° (N) 2,318 5.3 -9.7°
Sets 16:16:00 0° 350° (N) 3,248 6.1 -10.0°
